Starlink 11416

operational
NORAD ID: 62594 Int'l Des: 2025-008 Owner: SPXS Country: US Constellation: starlink
LEOCIRCULAR

Über Starlink 11416

Beschreibung wird geladen...

Live-Position

3D-Globus wird geladen...

Nächste Überflüge

Höhenverlauf

Altitude vs Time

uPlot chart will show altitude changes over time

Zweizeiliger Elementsatz

1 62594U 25008H 25259.25496923 .00355292 00000-0 26454-2 0 9993
2 62594 43.0007 97.2555 0001614 288.3770 71.6922 15.70932399 39683
Epoch: 16. Sept. 2025 • Age: 39 hours

Aktueller Status

Höhe 354.0 km
Geschwindigkeit 7.70 km/s
Subsatellitenpunkt -5.90°S, 39.03°W
Startdatum 13. Jan. 2025
Alter 0.6 years
Typ internet

Technische Details

Klassifizierung Payload
Masse 960.00 kg
Trockenmasse 910.00 kg
Gesamtmasse 960.00 kg
Länge 0.30 m
Durchmesser 4.10 m
Spannweite 29.00 m
Form Box + pan
Hersteller SPXS
Bus-Typ Starlink V2MD
Phasenstatus In Orbit
Besitzer/Staat SPXS/US

Große Konstellationen

Loading constellations...